Regional Weather Roundup
Issued by NWS Sterling, VA

Home | Current Version | Previous Version | Text Only | Print | Product List | Glossary Off
Versions: 1 2 3 4 5 6 7 8 9 10 11 12 13 14 15 16 17 18 19 20 21 22 23 24 25 26 27

000
ASUS41 KLWX 280710
RWRLWX

REGIONAL WEATHER ROUNDUP
NATIONAL WEATHER SERVICE BALTIMORE MD/WASHINGTON DC
300 AM EDT TUE MAR 28 2017

Note: "FAIR" indicates few or no clouds below 12,000 feet
with no significant weather and/or obstructions to visibility.
 TC=TEMPERATURE CELSIUS

 * =Non NWS site. Station does not report precipitation (e.g. rain,
    snow, etc.), thunder, or fog.

DCZ001-MDZ009-015-VAZ040>042-051-053>054-280800-
WASHINGTON METRO

CITY           SKY/WX    TMP DP  RH WIND       PRES   REMARKS
WASHINGTON NAT CLOUDY    61  57  87 CALM      29.87F
DULLES         MOCLDY    55  54  96 S5        29.87F
ANDREWS AFB    CLOUDY    64  56  75 S9        29.87F
FT BELVOIR     CLOUDY    58  53  85 CALM      29.87F
QUANTICO       CLOUDY    61  56  83 SW6       29.89F
COLLEGE PARK*  CLOUDY    54  54  98 CALM      29.87F
LEESBURG*      MOCLDY    59  59 100 CALM      29.88F
MANASSAS*        N/A    N/A N/A N/A CALM      29.87F

$$

MDZ006>007-011-014-280800-
BALTIMORE METRO

CITY           SKY/WX    TMP DP  RH WIND       PRES   REMARKS
BWI AIRPORT    CLOUDY    54  54 100 CALM      29.88F
MD SCIENCE CTR   N/A     58  52  80 MISG      29.89F
MARTIN STATE   CLOUDY    54  54 100 CALM      29.90F
ANNAPOLIS      CLOUDY    55  52  89 SE3       29.87F
FORT MEADE*      N/A     52  50  93 CALM      29.90F VSB 1/4

$$

MDZ012-015-019>023-280800-
MARYLAND EASTERN SHORE

CITY           SKY/WX    TMP DP  RH WIND       PRES   REMARKS
OCEAN CITY     PTCLDY    54  50  86 SW7       29.94F
SALISBURY      CLOUDY    58  54  86 S7        29.92F
BAY BRIDGE AP* CLOUDY    57  54  88 S9        29.88F
CAMBRIDGE*     MOCLDY    57  54  88 SE7       29.90F
EASTON*        CLOUDY    64  54  71 SW7       29.93F

$$

MDZ017>025-280800-
SOUTHERN MARYLAND

CITY           SKY/WX    TMP DP  RH WIND       PRES   REMARKS
PATUXENT RIVER CLOUDY    64  57  78 SW10      29.89F
ST INIGOES     PTCLDY    64  55  72 S9        29.89F
LEONARDTOWN*   MOCLDY    63  54  72 SW7       29.91F

$$

MDZ003>005-280800-
NORTH CENTRAL MARYLAND

CITY           SKY/WX    TMP DP  RH WIND       PRES   REMARKS
FREDERICK*     MOCLDY    52  52 100 CALM      29.91F FOG
HAGERSTOWN APT CLOUDY    52  50  93 N8        29.87F FOG
WESTMINSTER*   PTCLDY    55  55 100 CALM      29.88F

$$

MDZ501>502-280800-
WESTERN MARYLAND

CITY           SKY/WX    TMP DP  RH WIND       PRES   REMARKS
OAKLAND*       CLOUDY    50  50 100 S5        29.89F
CUMBERLAND*    CLOUDY    55  54  94 N3        29.91F

$$

VAZ025>031-280800-
SHENANDOAH VALLEY

CITY           SKY/WX    TMP DP  RH WIND       PRES   REMARKS
WINCHESTER*    CLOUDY    55  54  94 N5        29.88S
FRONT ROYAL*   CLOUDY    61  55  82 CALM      29.85F
LURAY*         CLOUDY    54  54 100 CALM      29.87F
NEW MARKET*    CLOUDY    53  52  96 CALM      29.87F
STAUNTON*      CLOUDY    53  52  97 CALM      29.90F
WAYNESBORO*    CLOUDY    61  59  92 S7        29.89F

$$

WVZ021-048>050-054>055-280800-
EASTERN WEST VIRGINIA PANHANDLE

CITY           SKY/WX    TMP DP  RH WIND       PRES   REMARKS
MARTINSBURG    MOCLDY    53  51  93 CALM      29.87F FOG
PETERSBURG*    CLOUDY    55  54  97 CALM      29.88F FOG

$$

VAZ036>039-050-280800-
CENTRAL FOOTHILLS

CITY           SKY/WX    TMP DP  RH WIND       PRES   REMARKS
CHARLOTTESVILL LGT RAIN  64  59  83 SW6       29.88F
CULPEPER*      CLOUDY    58  56  94 CALM      29.88F
ORANGE*        CLOUDY    61  55  82 S5        29.89F
GORDONSVILLE*  CLOUDY    55  54  97 SW3       29.88F
WARRENTON*     NOT AVBL

$$

VAZ055>057-280800-
NORTH AND CENTRAL PIEDMONT

CITY           SKY/WX    TMP DP  RH WIND       PRES   REMARKS
FREDERICKSBRG* MOCLDY    66  59  76 S8        29.88F
STAFFORD*      CLOUDY    64  58  81 S5        29.92F

$$

NCZ024-NYZ072-PAZ021-071-VAZ022-071-280800-
OTHER REGIONAL OBSERVATIONS

CITY           SKY/WX    TMP DP  RH WIND       PRES   REMARKS
NEW YORK CITY  CLOUDY    44  43  96 E7        29.98F FOG
PHILADELPHIA   CLOUDY    51  49  92 NE3       29.92F FOG
PITTSBURGH     MOCLDY    57  51  80 CALM      29.85F
ROANOKE        CLOUDY    63  54  72 CALM      29.91F
RICHMOND       CLOUDY    64  56  75 S8        29.91F
RALEIGH        CLOUDY    65  55  70 SW12      29.96F

$$

ANZ530>537-280800-
MARINE OBSERVATIONS

STATION/POSITION TIME  TEMP    WIND        PRES
                       AIR SEA DIR/SP/G
                 (UTC) (F)     (DEG/KT/KT) (MB)
THOMAS PT LIGHT  0700   53 46  190/  9/  9   N/A
BALT KEY BRIDGE  0642   53     120/  2/  3 1012.0F
COVE POINT       0642   65     230/ 15/ 18 1012.7F
LEWISETTA        0642   65 54  230/ 10/ 12 1012.2F
SOLOMONS ISLAND  0642   61 48  210/ 11/ 13   N/A
PINEY POINT      0648          230/  8/  9   N/A

$$





USA.gov is the U.S. government's official web portal to all federal, state and local government web resources and services.